Location: Veytaux
(46.4185°N, 6.9320°E)
Time: 09:10:28
(UTC+00:00)

Gblst 52 Del rocket - Pass Details

Date: 27 May 2022
Orbit: 806 x 1364 km, 51.5° (Epoch: 01 July)

Event Time Altitude Azimuth Distance (km) Brightness Sun altitude
Rises 02:51:04 0° 295° (WNW) 3,455 7.2 -8.4°
Reaches altitude 10° 02:53:39 10° 296° (WNW) 2,466 6.4 -8.1°
Maximum altitude 02:59:20 82° 24° (NNE) 823 4.3 -7.4°
Drops below altitude 10° 03:04:49 10° 113° (ESE) 2,388 6.9 -6.7°
Sets 03:07:17 0° 114° (ESE) 3,337 7.7 -6.3°
